VLG2011 EGFF-LFRB

Flight info

Callsign VLG2011
Flight time 0h 38m
Altitude 23000
Route EXMOR N92 DAWLY N864 BHD/N0394F220 DCT SALCO/N0389F210 DCT NOKVI
Aircraft A20N/M-SDE2E3FGHIRWXY/LB1

Departure

Time 2026-04-26 17:11
Airport Cardiff International Airport (EGFF)

Arrival

Time 2026-04-26 17:50
Airport Brest Bretagne airport (LFRB)
Time Latitude Longitude Altitude Speed Heading
2026-04-26 17:02 51.39766 -3.33836 224 ft 0 kts 81°
2026-04-26 17:05 51.39765 -3.33852 224 ft 4 kts 81°
2026-04-26 17:05 51.39761 -3.33894 224 ft 4 kts 81°
2026-04-26 17:06 51.39756 -3.33937 224 ft 4 kts 81°
2026-04-26 17:06 51.39754 -3.33962 224 ft 1 kts 81°
2026-04-26 17:07 51.39750 -3.33939 224 ft 4 kts 125°
2026-04-26 17:08 51.39710 -3.33866 224 ft 13 kts 130°
2026-04-26 17:08 51.39640 -3.33822 225 ft 12 kts 229°
2026-04-26 17:08 51.39607 -3.33975 224 ft 17 kts 250°
2026-04-26 17:08 51.39616 -3.34189 223 ft 24 kts 297°
2026-04-26 17:09 51.39699 -3.34449 226 ft 29 kts 296°
2026-04-26 17:09 51.39762 -3.34652 225 ft 33 kts 296°
2026-04-26 17:09 51.39914 -3.35135 219 ft 38 kts 297°
2026-04-26 17:09 51.40035 -3.35512 227 ft 37 kts 297°
2026-04-26 17:10 51.40093 -3.35680 225 ft 10 kts 311°
2026-04-26 17:10 51.40154 -3.35751 224 ft 9 kts 309°
2026-04-26 17:10 51.40133 -3.35797 223 ft 4 kts 167°
2026-04-26 17:10 51.40116 -3.35766 225 ft 10 kts 121°
2026-04-26 17:11 51.39954 -3.35258 221 ft 93 kts 117°
2026-04-26 17:11 51.39541 -3.33949 242 ft 166 kts 117°
2026-04-26 17:11 51.38968 -3.32195 783 ft 187 kts 118°
2026-04-26 17:11 51.38384 -3.30357 1748 ft 190 kts 117°
2026-04-26 17:12 51.36727 -3.26254 2747 ft 245 kts 136°
2026-04-26 17:12 51.35327 -3.24633 3644 ft 252 kts 155°
2026-04-26 17:13 51.31794 -3.24022 5568 ft 265 kts 186°
2026-04-26 17:13 51.29962 -3.24521 6589 ft 268 kts 193°
2026-04-26 17:13 51.26333 -3.26014 8586 ft 271 kts 196°
2026-04-26 17:14 51.24508 -3.26795 9581 ft 273 kts 196°
2026-04-26 17:14 51.20719 -3.28304 10900 ft 300 kts 194°
2026-04-26 17:14 51.18605 -3.29090 11233 ft 324 kts 194°
2026-04-26 17:15 51.13992 -3.30737 12434 ft 349 kts 194°
2026-04-26 17:15 51.11598 -3.31578 13323 ft 353 kts 194°
2026-04-26 17:15 51.09187 -3.32423 14217 ft 357 kts 194°
2026-04-26 17:16 51.06749 -3.33280 14968 ft 362 kts 194°
2026-04-26 17:16 51.04279 -3.34151 15701 ft 367 kts 194°
2026-04-26 17:16 51.01768 -3.35039 16464 ft 371 kts 194°
2026-04-26 17:16 50.99233 -3.35936 17211 ft 376 kts 194°
2026-04-26 17:17 50.96672 -3.36840 17940 ft 381 kts 194°
2026-04-26 17:17 50.94059 -3.37761 18643 ft 385 kts 194°
2026-04-26 17:17 50.91426 -3.38687 19265 ft 389 kts 194°
2026-04-26 17:17 50.88778 -3.39618 19945 ft 391 kts 194°
2026-04-26 17:18 50.86113 -3.40554 20599 ft 393 kts 194°
2026-04-26 17:18 50.83441 -3.41492 21248 ft 396 kts 194°
2026-04-26 17:18 50.80719 -3.42283 21867 ft 399 kts 191°
2026-04-26 17:18 50.77955 -3.42884 22502 ft 402 kts 189°
2026-04-26 17:19 50.72348 -3.43909 23250 ft 407 kts 188°
2026-04-26 17:19 50.69527 -3.44381 23267 ft 408 kts 188°
2026-04-26 17:19 50.66702 -3.44847 23265 ft 408 kts 188°
2026-04-26 17:20 50.63878 -3.45314 23264 ft 409 kts 188°
2026-04-26 17:20 50.62002 -3.45627 23255 ft 409 kts 188°
2026-04-26 17:20 50.58220 -3.46261 23256 ft 409 kts 188°
2026-04-26 17:20 50.55390 -3.46740 23260 ft 409 kts 188°
2026-04-26 17:21 50.52561 -3.47220 23253 ft 409 kts 188°
2026-04-26 17:21 50.49725 -3.47702 23261 ft 409 kts 188°
2026-04-26 17:21 50.46939 -3.48174 23253 ft 409 kts 188°
2026-04-26 17:21 50.44062 -3.48660 23254 ft 409 kts 188°
2026-04-26 17:22 50.41231 -3.49138 23251 ft 409 kts 188°
2026-04-26 17:22 50.38397 -3.49520 23248 ft 410 kts 186°
2026-04-26 17:22 50.35543 -3.49749 23241 ft 410 kts 184°
2026-04-26 17:22 50.32690 -3.49897 23245 ft 410 kts 184°
2026-04-26 17:23 50.29833 -3.50016 23248 ft 410 kts 184°
2026-04-26 17:23 50.27016 -3.50130 23243 ft 410 kts 184°
2026-04-26 17:23 50.24148 -3.50256 23242 ft 410 kts 184°
2026-04-26 17:23 50.21275 -3.50394 23247 ft 410 kts 184°
2026-04-26 17:24 50.18460 -3.50538 23238 ft 410 kts 184°
2026-04-26 17:24 50.15609 -3.50690 23249 ft 410 kts 184°
2026-04-26 17:24 50.12761 -3.50845 23239 ft 410 kts 184°
2026-04-26 17:24 50.09908 -3.51002 23240 ft 410 kts 184°
2026-04-26 17:25 50.07070 -3.51157 22778 ft 407 kts 184°
2026-04-26 17:25 50.04226 -3.51312 21717 ft 413 kts 184°
2026-04-26 17:25 50.01335 -3.51471 20799 ft 417 kts 184°
2026-04-26 17:25 49.98448 -3.51628 20075 ft 415 kts 184°
2026-04-26 17:26 49.95567 -3.51782 19402 ft 412 kts 184°
2026-04-26 17:26 49.92716 -3.51934 18749 ft 409 kts 184°
2026-04-26 17:26 49.89882 -3.52085 18025 ft 406 kts 184°
2026-04-26 17:26 49.87080 -3.52236 17329 ft 401 kts 184°
2026-04-26 17:27 49.84300 -3.52385 16658 ft 397 kts 184°
2026-04-26 17:27 49.81558 -3.52533 15990 ft 393 kts 184°
2026-04-26 17:27 49.78829 -3.52680 15334 ft 389 kts 184°
2026-04-26 17:27 49.76148 -3.52828 14696 ft 386 kts 184°
2026-04-26 17:28 49.73488 -3.53286 14051 ft 381 kts 190°
2026-04-26 17:28 49.70896 -3.54042 13465 ft 377 kts 192°
2026-04-26 17:28 49.68333 -3.54915 13245 ft 378 kts 194°
2026-04-26 17:28 49.65769 -3.55859 13221 ft 380 kts 194°
2026-04-26 17:29 49.63203 -3.56834 13221 ft 380 kts 194°
2026-04-26 17:29 49.61503 -3.57486 13222 ft 380 kts 194°
2026-04-26 17:29 49.58076 -3.58796 13222 ft 380 kts 194°
2026-04-26 17:29 49.55514 -3.59767 13220 ft 379 kts 195°
2026-04-26 17:30 49.52989 -3.60716 13218 ft 378 kts 195°
2026-04-26 17:30 49.50436 -3.61672 13219 ft 378 kts 194°
2026-04-26 17:30 49.47882 -3.62624 13219 ft 378 kts 194°
2026-04-26 17:30 49.45309 -3.63580 13196 ft 377 kts 194°
2026-04-26 17:31 49.42812 -3.64507 12730 ft 372 kts 194°
2026-04-26 17:31 49.40303 -3.65436 12427 ft 359 kts 194°
2026-04-26 17:31 49.37940 -3.66309 12026 ft 350 kts 194°
2026-04-26 17:31 49.35589 -3.67179 11492 ft 346 kts 194°
2026-04-26 17:32 49.33227 -3.68053 10931 ft 343 kts 194°
2026-04-26 17:32 49.30944 -3.68898 10374 ft 341 kts 194°
2026-04-26 17:32 49.28649 -3.69747 9795 ft 338 kts 194°
2026-04-26 17:32 49.26372 -3.70588 9178 ft 335 kts 194°
2026-04-26 17:33 49.24116 -3.71420 8578 ft 332 kts 194°
2026-04-26 17:33 49.21882 -3.72243 8002 ft 329 kts 194°
2026-04-26 17:33 49.19663 -3.72964 7405 ft 327 kts 188°
2026-04-26 17:34 49.15153 -3.72544 6210 ft 324 kts 171°
2026-04-26 17:34 49.12949 -3.71890 5654 ft 320 kts 170°
2026-04-26 17:34 49.10786 -3.71201 5113 ft 316 kts 169°
2026-04-26 17:34 49.08645 -3.70505 4497 ft 314 kts 169°
2026-04-26 17:35 49.06519 -3.69806 3882 ft 312 kts 169°
2026-04-26 17:35 49.04390 -3.69106 3321 ft 312 kts 169°
2026-04-26 17:35 49.02265 -3.68408 3045 ft 312 kts 168°
2026-04-26 17:35 49.00134 -3.67706 2979 ft 314 kts 168°
2026-04-26 17:36 48.97989 -3.66999 2981 ft 316 kts 168°
2026-04-26 17:36 48.95841 -3.66292 2996 ft 315 kts 168°
2026-04-26 17:36 48.94432 -3.65827 2989 ft 315 kts 168°
2026-04-26 17:36 48.91557 -3.64881 2985 ft 315 kts 168°
2026-04-26 17:37 48.90131 -3.64412 2985 ft 315 kts 168°
2026-04-26 17:37 48.87987 -3.63708 2992 ft 315 kts 168°
2026-04-26 17:37 48.85843 -3.63004 2998 ft 316 kts 168°
2026-04-26 17:38 48.80847 -3.61367 2997 ft 316 kts 168°
2026-04-26 17:38 48.78700 -3.60664 2995 ft 316 kts 168°
2026-04-26 17:38 48.76554 -3.59962 3001 ft 316 kts 168°
2026-04-26 17:38 48.75103 -3.59488 2990 ft 316 kts 168°
2026-04-26 17:39 48.72956 -3.58788 2998 ft 315 kts 168°
2026-04-26 17:39 48.70815 -3.58089 2989 ft 315 kts 168°
2026-04-26 17:39 48.68670 -3.57391 2987 ft 315 kts 168°
2026-04-26 17:39 48.66522 -3.56692 2984 ft 316 kts 168°
2026-04-26 17:40 48.64375 -3.56347 2982 ft 314 kts 184°
2026-04-26 17:40 48.62942 -3.56808 2991 ft 313 kts 202°
2026-04-26 17:40 48.60759 -3.59509 2979 ft 310 kts 238°
2026-04-26 17:40 48.59932 -3.62543 2978 ft 310 kts 253°
2026-04-26 17:41 48.59378 -3.65651 2987 ft 310 kts 256°
2026-04-26 17:41 48.58849 -3.68819 2975 ft 313 kts 256°
2026-04-26 17:41 48.58307 -3.72019 2972 ft 314 kts 256°
2026-04-26 17:41 48.57754 -3.75214 2970 ft 315 kts 256°
2026-04-26 17:42 48.57200 -3.78377 2969 ft 315 kts 255°
2026-04-26 17:42 48.56308 -3.80984 2970 ft 308 kts 229°
2026-04-26 17:42 48.54665 -3.82847 2975 ft 287 kts 213°
2026-04-26 17:42 48.53359 -3.84917 2973 ft 265 kts 246°
2026-04-26 17:43 48.53100 -3.87507 2972 ft 244 kts 281°
2026-04-26 17:43 48.53477 -3.89897 2974 ft 230 kts 282°
2026-04-26 17:43 48.53727 -3.92270 2974 ft 227 kts 273°
2026-04-26 17:43 48.53741 -3.94649 2976 ft 227 kts 265°
2026-04-26 17:44 48.53576 -3.97018 2970 ft 227 kts 261°
2026-04-26 17:44 48.53299 -3.99371 2972 ft 228 kts 258°
2026-04-26 17:44 48.52959 -4.01702 2965 ft 227 kts 256°
2026-04-26 17:44 48.52585 -4.04016 2961 ft 227 kts 255°
2026-04-26 17:45 48.52193 -4.06323 2973 ft 227 kts 255°
2026-04-26 17:45 48.51790 -4.08627 2975 ft 227 kts 254°
2026-04-26 17:45 48.51472 -4.10954 2991 ft 227 kts 263°
2026-04-26 17:45 48.51169 -4.13282 2993 ft 227 kts 252°
2026-04-26 17:46 48.50661 -4.15532 2978 ft 227 kts 251°
2026-04-26 17:46 48.50198 -4.17762 3017 ft 212 kts 252°
2026-04-26 17:46 48.49779 -4.19722 3060 ft 184 kts 251°
2026-04-26 17:46 48.49371 -4.21517 2948 ft 180 kts 250°
2026-04-26 17:47 48.48973 -4.23306 2708 ft 180 kts 251°
2026-04-26 17:47 48.48709 -4.24491 2525 ft 181 kts 251°
2026-04-26 17:47 48.48164 -4.26905 2184 ft 182 kts 251°
2026-04-26 17:47 48.47756 -4.28710 1928 ft 178 kts 252°
2026-04-26 17:48 48.47369 -4.30422 1713 ft 169 kts 253°
2026-04-26 17:48 48.46994 -4.32084 1482 ft 164 kts 252°
2026-04-26 17:48 48.46641 -4.33644 1275 ft 151 kts 253°
2026-04-26 17:48 48.46314 -4.35090 1071 ft 141 kts 255°
2026-04-26 17:49 48.46007 -4.36448 878 ft 136 kts 254°
2026-04-26 17:49 48.45696 -4.37788 608 ft 134 kts 252°
2026-04-26 17:49 48.45402 -4.39117 436 ft 133 kts 257°
2026-04-26 17:49 48.45105 -4.40435 332 ft 132 kts 255°
2026-04-26 17:50 48.44865 -4.41518 334 ft 73 kts 249°
2026-04-26 17:50 48.44789 -4.41839 330 ft 6 kts 249°
2026-04-26 17:50 48.44718 -4.42132 325 ft 54 kts 251°
2026-04-26 17:50 48.45414 -4.39060 449 ft 133 kts 257°
2026-04-26 17:51 48.45052 -4.40694 329 ft 131 kts 253°